Weather in Troitskoe

Russia / Lipetsk Oblast     52°29′40″N   39°31′22″E
В апреле 2022 года жителям России запретили посещать сайт meteo.paraplan.net по решению Генеральной прокуратуры. Аудитория сайта уменьшилась в 10 раз. Владельцы сайта не видят смысла в поддержке погодного сервера в таких условиях. Сайт будет закрыт в октябре.
temp.,
°C
wind,
m/s
gust,
m/s
humid.,
%
clouds,
%
prec.,
mm/h
press.,
hPa
HPBL,
m
3 october, mon
mon300:00+16se71588100 2.0 998922
03:00+16sse91685100 3.6 996931
06:00+15se91887100 3.6 9941080
09:00+12sw71186100 7.0 998992
12:00+10ssw81478100 0.3 10021438
15:00+10ssw91878100 0.3 10051678
18:00+11s7137734 0.1 10071086
21:00+11s715785 0.1 1008723
4 october, tue
tue400:00+10s615775 0.0 1009561
03:00+10s6147544 0.0 1010618
06:00+9s614775 0.0 1011524
09:00+11sse7147292 0.0 1012810
12:00+13s91470100 0.2 10131562
15:00+14s6137490 0.4 10131266
18:00+11ssw4982100 1.7 1013272
21:00+11ssw4981100 1.7 1014417
5 october, wed
wed500:00+10ssw51081100 0.0 1015551
03:00+9ssw51183100 0.0 1015534
06:00+9ssw51184100 0.1 1016630
09:00+9ssw6108495 0.2 1016794
12:00+12sw71171100 0.4 10161426
15:00+9wsw5982100 0.9 10181031
18:00+9w377892 0.1 1019418
21:00+7wsw498986 0.2 1020282
6 october, thu
thu600:00+6wsw489194 0.0 1020219
03:00+7wsw4987100 0.0 1020365
06:00+7wsw499493 0.0 1020323
09:00+8wsw4893100 0.0 1020414
12:00+10wsw4887100 0.0 1020565
15:00+13wsw697462 0.0 1019926
18:00+13wsw4107928 0.0 1020375
21:00+11wsw41187100 0.0 1019415
7 october, fri
fri700:00+11wsw5128657 0.0 1019421
03:00+9wsw511925 0.0 1019318
06:00+9w4109615 0.0 1020273
09:00+11nw698999 0.0 1021517
12:00+14wnw57640 0.0 1022852
15:00+16wnw58530 0.0 10221081
18:00+12wnw35720 0.0 102397
21:00+10nw37840 0.0 1025165